Location: Belloy
(55.7522°N, 118.2333°W)
Time: 23:20:07
(UTC+00:00)

Envisat - Pass Details

Date: 07 December 2021
Orbit: 764 x 766 km, 98.2° (Epoch: 27 January)

Event Time Altitude Azimuth Distance (km) Brightness Sun altitude
Rises 13:37:32 0° 14° (NNE) 3,249 6.3 -19.5°
Reaches altitude 10° 13:39:51 10° 11° (N) 2,319 5.5 -19.2°
Maximum altitude 13:44:54 64° 291° (WNW) 851 2.9 -18.5°
Drops below altitude 10° 13:49:55 10° 211° (SSW) 2,302 5.3 -17.8°
Sets 13:52:13 0° 209° (SSW) 3,224 6.1 -17.5°
